NIMBUS 2 DEB, 40645

Orbit data source: Space-Track

NIMBUS 2 DEB, 40645 is space debris in SSO originally from a launch on Sun, 15 May 1966 UTC launched from the Air Force Western Test Range (AFWTR). Debris objects in space refer to the collection of defunct objects orbiting the Earth. Examples of debris include non-operational satellites, rocket bodies, and fragments generated from explosions, collisions, or faulty payload assembly.

Loading next visibility...
Identifier
40645, 1966-040BJ
Orbit
SSO
Country
Flag of USUS
Related business
Manufacturer
Unknown
Mission
Spacecraft
Bus & Motor
Unknown
Mass
Unknown
Launch date (UTC)
1966-05-15 (60 years ago)
Launch vehicle
Unknown
Launch site
Air Force Western Test Range (AFWTR)
Object type
Payload
Rocket body
Debris
Shape & HBR
Unknown shape, 0.1 m
Radar Cross Section
Small (<0.1 m²)

Expand to show TLE details & history
Last TLE update: 6 days ago

TLE from 6 days ago
0 NIMBUS 2 DEB
1 40645U 66040BJ  26119.94569816  .00001181  00000-0  20758-2 0  9997
2 40645 100.4100 358.9515 0045672 308.5184  51.1854 13.45031380536428
Epoch: 2026-04-29T22:41Z
TLE epoch observation values (Epoch: 2026-04-29T22:41:48.321Z)
Latitude
-0.00004°
Longitude
160.6008°
Altitude
1,072.059 km
Speed
7.326 km/s
True Right ascension
23h 55m 48s
True Declination
0° 00' 00"
Sunlit
Object was in daylight at epoch
Visualization orbit readout
Latitude
Unknown
Longitude
Unknown
Altitude
Unknown
Speed
Unknown
Apparent Right ascension
Unknown
Apparent Declination
Unknown
Sunlit
N/A
Visualization observer readout
Local Sidereal Time
09:33:33
Azimuth
Unknown
Elevation
Unknown
Doppler factor
Unknown
Orbital elements
Apogee altitude
1,122.04 km
Perigee altitude
1,053.842 km
Semi-major axis
7,466.078 km
Eccentricity
0.00457
Inclination
100.41°
RAAN
358.9515°
Arg. of periapsis
308.5184°
True anomaly
51.59465°
Mean anomaly
51.1854°
Eccentric anomaly
51.38988°
Mean motion
3.36437 °/min
Orbital period
107 mins
BSTAR
0.0020758
Loading maneuver chart data...
Computing Atmospheric mass density...
Loading historical data...
Loading historical data...
Loading historical data...
Loading historical data...
Loading historical data...
Loading historical data...
Loading historical data...

Documentation

Showing up to 5 results
|